Weather History for KEGI - February, 2013

Change the Weather History Date:

Sunday, February 24, 2013

  Actual Average Record
Temperature  
Mean Temperature 61 °F -  
Max Temperature 72 °F - - ()
Min Temperature 50 °F - - ()
Degree Days  
Heating Degree Days 4    
Growing Degree Days 11 (Base 50)    
Moisture  
Dew Point 51 °F    
Average Humidity 83    
Maximum Humidity 100    
Minimum Humidity 42    
Precipitation  
Precipitation 0.34 in - - ()
Sea Level Pressure  
Sea Level Pressure 29.94 in    
Wind  
Wind Speed 7 mph (NE)    
Max Wind Speed 9 mph    
Max Gust Speed -    
Visibility 6 miles    
Events Fog , Rain , Thunderstorm    
T = Trace of Precipitation, MM = Missing Value Source: NWS Daily Summary

Daily Weather History Graph

Daily Weather History Graph

Search for Another Location

Airport or City:

Trip Planner

Search our weather history database for the weather conditions in past years. The results will help you decide how hot, cold, wet, or windy it might be!

Date:

Astronomy

Feb. 24, 2013 Rise Set
Actual Time 6:17 AM CST 5:41 PM CST
Civil Twilight 5:53 AM CST 6:05 PM CST
Nautical Twilight 5:25 AM CST 6:33 PM CST
Astronomical Twilight 4:57 AM CST 7:01 PM CST
Moon 4:51 PM CST (2/24) 5:12 AM CST (2/24)
Length of Visible Light 12h 12m
Length of Day
11h 23m
Waxing Gibbous, 99% of the Moon is Illuminated
Feb 24
Waxing Gibbous
Feb 25
Full
Mar 4
Last Quarter
Mar 11
New
Mar 19
First Quarter

Hourly Weather History & Observations

Time (CST) Temp. Dew Point Humidity Pressure Visibility Wind Dir Wind Speed Gust Speed Precip Events Conditions
12:08 AM 55.4 °F 55.4 °F 100% 29.95 in 10.0 mi North 6.9 mph - N/A   Mostly Cloudy
12:38 AM 55.4 °F 55.4 °F 100% 29.96 in 10.0 mi North 6.9 mph - N/A   Mostly Cloudy
12:43 AM 55.4 °F 55.4 °F 100% 29.96 in 10.0 mi NNE 8.1 mph - N/A   Mostly Cloudy
12:58 AM 55.4 °F 55.4 °F 100% 29.95 in 10.0 mi North 8.1 mph - N/A   Mostly Cloudy
1:58 AM 55.2 °F 54.1 °F 96% 29.94 in 10.0 mi NNE 4.6 mph - N/A   Overcast
2:58 AM 53.8 °F 53.4 °F 99% 29.94 in 10.0 mi NNE 5.8 mph - N/A   Clear
3:58 AM 52.0 °F 51.8 °F 99% 29.93 in 9.0 mi North 5.8 mph - N/A   Clear
4:58 AM 50.9 °F 50.7 °F 99% 29.94 in 7.0 mi North 6.9 mph - N/A   Clear
5:54 AM 50.0 °F 50.0 °F 100% 29.95 in 6.0 mi North 6.9 mph - N/A   Partly Cloudy
5:58 AM 50.0 °F 50.0 °F 100% 29.95 in 6.0 mi North 5.8 mph - N/A   Partly Cloudy
6:08 AM 50.0 °F 50.0 °F 100% 29.96 in 1.2 mi NNE 8.1 mph - N/A   Mostly Cloudy
6:13 AM 50.0 °F 50.0 °F 100% 29.96 in 0.5 mi North 8.1 mph - N/A Fog Fog
6:18 AM 50.0 °F 50.0 °F 100% 29.97 in 0.2 mi North 8.1 mph - N/A Fog Fog
6:28 AM 50.0 °F 50.0 °F 100% 29.97 in 0.2 mi NNE 6.9 mph - N/A Fog Fog
6:33 AM 50.0 °F 50.0 °F 100% 29.97 in 0.5 mi NNE 6.9 mph - N/A Fog Fog
6:48 AM 50.0 °F 50.0 °F 100% 29.97 in 0.8 mi NNE 8.1 mph - N/A   Mist
6:53 AM 50.0 °F 50.0 °F 100% 29.98 in 1.2 mi NNE 5.8 mph - N/A   Overcast
6:58 AM 50.0 °F 50.0 °F 100% 29.98 in 1.5 mi NNE 9.2 mph - N/A   Overcast
7:03 AM 50.0 °F 50.0 °F 100% 29.98 in 1.8 mi NNE 5.8 mph - N/A   Overcast
7:13 AM 50.0 °F 50.0 °F 100% 29.98 in 1.0 mi NNE 8.1 mph - N/A   Mist
7:18 AM 50.0 °F 50.0 °F 100% 29.98 in 0.8 mi NNE 8.1 mph - N/A   Mist
7:33 AM 50.0 °F 50.0 °F 100% 29.98 in 0.8 mi NE 8.1 mph - N/A   Mist
7:43 AM 51.8 °F 50.0 °F 94% 29.99 in 0.8 mi NE 6.9 mph - N/A   Mist
7:48 AM 51.8 °F 50.0 °F 94% 29.99 in 1.0 mi NE 5.8 mph - N/A   Mist
7:53 AM 51.8 °F 51.8 °F 100% 29.99 in 1.2 mi NE 6.9 mph - N/A   Overcast
7:58 AM 51.8 °F 51.8 °F 100% 29.99 in 1.5 mi NE 5.8 mph - N/A   Overcast
8:03 AM 51.8 °F 51.8 °F 100% 29.99 in 2.0 mi NNE 8.1 mph - N/A   Overcast
8:08 AM 51.8 °F 51.8 °F 100% 29.99 in 2.5 mi NE 5.8 mph - N/A   Overcast
8:13 AM 51.8 °F 51.8 °F 100% 29.99 in 4.0 mi NE 3.5 mph - N/A   Overcast
8:33 AM 53.6 °F 51.8 °F 94% 30.00 in 10.0 mi NNE 6.9 mph - N/A   Overcast
8:53 AM 53.6 °F 53.6 °F 100% 29.99 in 10.0 mi NE 5.8 mph - N/A   Overcast
8:58 AM 54.1 °F 53.1 °F 96% 29.99 in 10.0 mi NE 8.1 mph - N/A   Mostly Cloudy
9:08 AM 55.4 °F 51.8 °F 88% 29.99 in 10.0 mi NE 6.9 mph - N/A   Scattered Clouds
9:58 AM 60.3 °F 52.7 °F 76% 30.00 in 10.0 mi NNE 8.1 mph - N/A   Clear
10:58 AM 65.3 °F 50.5 °F 59% 29.98 in 10.0 mi ENE 6.9 mph - N/A   Clear
11:58 AM 68.7 °F 49.8 °F 51% 29.96 in 10.0 mi NE 9.2 mph - N/A   Clear
12:58 PM 71.2 °F 47.7 °F 43% 29.94 in 10.0 mi NE 8.1 mph - N/A   Scattered Clouds
1:58 PM 72.1 °F 47.8 °F 42% 29.93 in 10.0 mi ENE 6.9 mph - N/A   Scattered Clouds
2:58 PM 70.5 °F 48.0 °F 45% 29.91 in 10.0 mi NE 5.8 mph - N/A   Mostly Cloudy
3:58 PM 70.3 °F 49.8 °F 48% 29.92 in 10.0 mi NNE 4.6 mph - N/A   Mostly Cloudy
4:58 PM 67.8 °F 49.5 °F 52% 29.91 in 10.0 mi East 2.3 mph - N/A   Partly Cloudy
5:44 PM 66.2 °F 50.0 °F 56% 29.91 in 10.0 mi Variable 2.3 mph - N/A   Light Drizzle
5:45 PM 66.2 °F 50.0 °F 56% 29.91 in 10.0 mi Variable 2.3 mph - N/A   Mostly Cloudy
5:58 PM 65.8 °F 50.0 °F 57% 29.91 in 10.0 mi NE 4.6 mph - 0.00 in   Mostly Cloudy
6:58 PM 64.8 °F 50.5 °F 60% 29.91 in 10.0 mi ESE 3.5 mph - N/A   Mostly Cloudy
7:58 PM 64.2 °F 49.8 °F 59% 29.91 in 10.0 mi ENE 4.6 mph - N/A   Overcast
8:58 PM 64.2 °F 48.9 °F 58% 29.89 in 10.0 mi NE 5.8 mph - N/A   Overcast
9:08 PM 64.4 °F 48.2 °F 56% 29.90 in 10.0 mi ENE 4.6 mph - N/A   Mostly Cloudy
9:09 PM 64.4 °F 48.2 °F 56% 29.90 in 10.0 mi East 4.6 mph - N/A Rain Light Rain
9:23 PM 64.4 °F 50.0 °F 59% 29.89 in 10.0 mi NE 4.6 mph - N/A   Mostly Cloudy
9:58 PM 64.6 °F 48.2 °F 55% 29.90 in 10.0 mi SE 6.9 mph - 0.00 in   Overcast
9:59 PM 64.4 °F 48.2 °F 56% 29.90 in 10.0 mi SE 4.6 mph - N/A   Light Drizzle
10:00 PM 64.4 °F 48.2 °F 56% 29.90 in 10.0 mi SE 4.6 mph - N/A Rain , Thunderstorm Light Thunderstorms and Rain
10:20 PM 60.8 °F 53.6 °F 77% 29.91 in 3.0 mi ESE 5.8 mph - N/A Rain , Thunderstorm Heavy Thunderstorms and Rain
10:23 PM 59.0 °F 53.6 °F 82% 29.90 in 4.0 mi Variable 4.6 mph - N/A Rain , Thunderstorm Rain
10:35 PM 57.2 °F 55.4 °F 94% 29.92 in 4.0 mi NE 3.5 mph - N/A Rain , Thunderstorm Thunderstorms and Rain
10:58 PM 57.6 °F 55.6 °F 93% 29.90 in 3.0 mi NNE 8.1 mph - 0.21 in Rain , Thunderstorm Thunderstorms and Rain
11:02 PM 57.2 °F 55.4 °F 94% 29.89 in 5.0 mi North 9.2 mph - N/A Rain , Thunderstorm Rain
11:26 PM 57.2 °F 55.4 °F 94% 29.89 in 10.0 mi East 8.1 mph - N/A Rain , Thunderstorm Light Thunderstorms and Rain
11:58 PM 56.3 °F 55.8 °F 98% 29.85 in 4.0 mi East 6.9 mph - 0.13 in Rain , Thunderstorm Light Thunderstorms and Rain